Location: *
(6.0000°S, 32.3997°W)
Time: 18:53:09
(UTC+00:00)

Cosmos 1844 - Pass Details

Date: 01 April 2020
Orbit: 821 x 869 km, 70.9° (Epoch: 28 May)

Event Time Altitude Azimuth Distance (km) Brightness Sun altitude
Rises 20:32:59 0° 341° (NNW) 3,415 7.2 -5.4°
Reaches altitude 10° 20:35:26 10° 339° (NNW) 2,488 6.5 -6.0°
Maximum altitude 20:41:09 74° 254° (WSW) 899 4.1 -7.4°
Drops below altitude 10° 20:46:57 10° 169° (S) 2,517 6.0 -8.9°
Sets 20:49:26 0° 167° (SSE) 3,458 6.7 -9.5°
